Time,TemperatureF,DewpointF,PressureIn,WindDirection,WindDirectionDegrees,WindSpeedMPH,WindSpeedGustMPH,Humidity,HourlyPrecipIn,Conditions,Clouds,dailyrainin,SoftwareType,DateUTC
2013-05-25 14:10:00,82.9,69.9,29.92,SSE,157,4.3,-999.0,65,-99.99,,,0.00,Acu-Link.com,2013-05-25 19:10:00,
2013-05-25 14:25:00,83.7,70.2,29.92,SSW,202,5.8,-999.0,64,-99.99,,,0.00,Acu-Link.com,2013-05-25 19:25:00,
2013-05-25 14:40:00,82.8,69.3,29.91,NNE,22,8.3,-999.0,64,-99.99,,,0.00,Acu-Link.com,2013-05-25 19:40:00,
2013-05-25 14:55:00,83.3,69.4,29.91,NNE,22,3.1,-999.0,63,-99.99,,,0.00,Acu-Link.com,2013-05-25 19:55:00,
2013-05-25 15:10:00,84.9,69.0,29.90,WNW,292,5.8,-999.0,59,-99.99,,,0.00,Acu-Link.com,2013-05-25 20:10:00,
2013-05-25 15:25:00,84.0,69.1,29.90,South,180,3.8,-999.0,61,-99.99,,,0.00,Acu-Link.com,2013-05-25 20:25:00,
2013-05-25 15:41:00,82.9,68.6,29.90,WSW,247,2.2,-999.0,62,-99.99,,,0.00,Acu-Link.com,2013-05-25 20:41:00,
2013-05-25 16:59:00,79.5,68.4,29.90,SSE,157,11.4,-999.0,69,-99.99,,,0.00,Acu-Link.com,2013-05-25 21:59:00,
2013-05-25 17:14:00,75.4,65.7,29.92,SSW,202,6.7,-999.0,72,-99.99,,,0.00,Acu-Link.com,2013-05-25 22:14:00,
2013-05-25 17:30:00,74.8,64.8,29.91,SE,135,4.7,-999.0,71,-99.99,,,0.00,Acu-Link.com,2013-05-25 22:30:00,
2013-05-25 17:45:00,75.4,64.9,29.91,ENE,67,2.7,-999.0,70,-99.99,,,0.00,Acu-Link.com,2013-05-25 22:45:00,
2013-05-25 18:00:00,75.9,65.4,29.92,East,90,6.3,-999.0,70,-99.99,,,0.00,Acu-Link.com,2013-05-25 23:00:00,
2013-05-25 18:15:00,72.9,66.7,29.92,East,90,4.7,-999.0,81,-99.99,,,0.01,Acu-Link.com,2013-05-25 23:15:00,
2013-05-25 18:30:00,72.7,67.2,29.91,ESE,112,0.0,-999.0,83,-99.99,,,0.04,Acu-Link.com,2013-05-25 23:30:00,
2013-05-25 18:45:00,72.7,67.6,29.90,ESE,112,4.3,-999.0,84,-99.99,,,0.04,Acu-Link.com,2013-05-25 23:45:00,
2013-05-25 19:01:00,72.5,67.4,29.90,SE,135,2.7,-999.0,84,-99.99,,,0.04,Acu-Link.com,2013-05-26 00:01:00,
2013-05-25 19:16:00,72.1,66.7,29.89,West,270,2.2,-999.0,83,-99.99,,,0.04,Acu-Link.com,2013-05-26 00:16:00,
2013-05-25 19:31:00,71.8,66.3,29.89,South,180,1.6,-999.0,83,-99.99,,,0.05,Acu-Link.com,2013-05-26 00:31:00,
2013-05-25 19:46:00,71.8,66.0,29.89,South,180,4.3,-999.0,82,-99.99,,,0.05,Acu-Link.com,2013-05-26 00:46:00,
2013-05-25 20:01:00,71.8,66.0,29.89,ESE,112,2.2,-999.0,82,-99.99,,,0.05,Acu-Link.com,2013-05-26 01:01:00,
2013-05-25 20:16:00,71.8,66.7,29.89,NNE,22,1.6,-999.0,84,-99.99,,,0.05,Acu-Link.com,2013-05-26 01:16:00,
2013-05-25 20:31:00,71.1,66.3,29.89,SSE,157,1.1,-999.0,85,-99.99,,,0.05,Acu-Link.com,2013-05-26 01:31:00,
2013-05-25 20:46:00,70.9,66.8,29.89,SSE,157,1.6,-999.0,87,-99.99,,,0.05,Acu-Link.com,2013-05-26 01:46:00,
2013-05-25 21:34:00,70.2,67.4,29.88,North,0,2.7,-999.0,91,-99.99,,,0.05,Acu-Link.com,2013-05-26 02:34:00,
2013-05-25 21:50:00,70.3,67.6,29.89,ESE,112,3.8,-999.0,91,-99.99,,,0.05,Acu-Link.com,2013-05-26 02:50:00,
2013-05-25 22:13:00,70.9,68.4,29.90,ENE,67,3.1,-999.0,92,-99.99,,,0.05,Acu-Link.com,2013-05-26 03:13:00,
2013-05-25 22:28:00,71.1,68.6,29.91,East,90,4.3,-999.0,92,-99.99,,,0.05,Acu-Link.com,2013-05-26 03:28:00,
2013-05-25 22:44:00,71.2,68.8,29.91,East,90,2.7,-999.0,92,-99.99,,,0.05,Acu-Link.com,2013-05-26 03:44:00,
2013-05-25 23:19:00,71.8,69.3,29.93,North,0,1.6,-999.0,92,-99.99,,,0.05,Acu-Link.com,2013-05-26 04:19:00,
2013-05-25 23:34:00,71.8,69.3,29.93,ENE,67,2.7,-999.0,92,-99.99,,,0.05,Acu-Link.com,2013-05-26 04:34:00,
2013-05-25 23:49:00,72.0,69.5,29.93,NNE,22,1.6,-999.0,92,-99.99,,,0.05,Acu-Link.com,2013-05-26 04:49:00,